This is the latest recevied weather packets stored in our database for station/object CT8ACA-6. If no packets are shown the sender has not sent any weather packets the latest 10 day(s).
| Time | Temp. | Humidity | Pressure | Rain* | Wind** | Luminosity | Snow |
|---|---|---|---|---|---|---|---|
| 1787764619 | 26.67° C | 63% | 1028 hPa | 0 mm | - | - | - |
| 1787764019 | 26.11° C | 62% | 1028 hPa | 0 mm | - | - | - |
| 1787763420 | 25.56° C | 62% | 1028 hPa | 0 mm | - | - | - |
| 1787762819 | 25° C | 61% | 1028.1 hPa | 0 mm | - | - | - |
| 1787762219 | 25.56° C | 61% | 1028.1 hPa | 0 mm | - | - | - |
| 1787761619 | 25.56° C | 61% | 1028 hPa | 0 mm | - | - | - |
| 1787761019 | 26.11° C | 62% | 1028 hPa | 0 mm | - | - | - |
| 1787760419 | 26.11° C | 61% | 1027.1 hPa | 0 mm | - | - | - |
| 1787759819 | 26.11° C | 61% | 1027.1 hPa | 0 mm | - | - | - |
| 1787759218 | 26.67° C | 60% | 1027.8 hPa | 0 mm | - | - | - |
| 1787758618 | 27.22° C | 61% | 1027.8 hPa | 0 mm | - | - | - |
| 1787758019 | 26.67° C | 63% | 1027.8 hPa | 0 mm | - | - | - |
| 1787757418 | 26.67° C | 64% | 1027.8 hPa | 0 mm | - | - | - |
| 1787756818 | 26.67° C | 64% | 1028 hPa | 0 mm | - | - | - |
| 1787756218 | 26.67° C | 64% | 1028 hPa | 0 mm | - | - | - |
| 1787755618 | 27.78° C | 64% | 1027.5 hPa | 0 mm | - | - | - |
| 1787755018 | 27.78° C | 68% | 1027.5 hPa | 0 mm | - | - | - |
| 1787754418 | 27.22° C | 67% | 1027.1 hPa | 0 mm | - | - | - |
| 1787753817 | 26.67° C | 66% | 1027.1 hPa | 0 mm | - | - | - |
| 1787753217 | 26.11° C | 65% | 1026.4 hPa | 0 mm | - | - | - |
| 1787752618 | 26.11° C | 64% | 1026.4 hPa | 0 mm | - | - | - |
| 1787752017 | 26.67° C | 67% | 1026.1 hPa | 0 mm | - | - | - |
| 1787751417 | 26.11° C | 68% | 1026.1 hPa | 0 mm | - | - | - |
| 1787750817 | 25.56° C | 68% | 1026 hPa | 0 mm | - | - | - |
| 1787750217 | 25° C | 69% | 1026 hPa | 0 mm | - | - | - |
* Rain latest hour (hover to see other rain measurements)
** Current wind speed in m/s (hover to see current wind gust speed)